Location: Bretagne
(43.8474°N, 0.4650°W)
Time: 06:18:48
(UTC+00:00)

SOZ - Pass Details

Date: 15 January 2026
Orbit: 287 x 12118 km, 52.0° (Epoch: 9 February)

Event Time Altitude Azimuth Distance (km) Brightness Sun altitude
Rises 17:58:47 0° 304° (NW) 1,958 8.2 -12.2°
Reaches altitude 10° 18:00:17 10° 309° (NW) 1,200 7.0 -12.5°
Maximum altitude 18:02:29 61° 32° (NNE) 458 4.2 -12.8°
Enters shadow 18:06:12 12° 113° (ESE) 2,040 7.3 -13.5°
